Satellite: NOAA-11 Catalog number: 19531 Epoch time: 11047.77212262 Element set: 0405 Inclination: 098.7551 deg RA of node: 137.5084 deg Eccentricity: 0.0011162 Arg of perigee: 168.2085 deg Mean anomaly: 191.9355 deg Mean motion: 14.14903748 rev/day Decay rate: -4.3e-07 rev/day^2 Epoch rev: 15572 Checksum: 289
Satellite: NOAA-12 Catalog number: 21263 Epoch time: 11047.72685205 Element set: 0898 Inclination: 098.7577 deg RA of node: 065.7491 deg Eccentricity: 0.0012630 Arg of perigee: 172.9500 deg Mean anomaly: 187.1853 deg Mean motion: 14.25683757 rev/day Decay rate: 9.3e-07 rev/day^2 Epoch rev: 02724 Checksum: 320
Satellite: MET-3/5 Catalog number: 21655 Epoch time: 11048.63532369 Element set: 40 Inclination: 082.5601 deg RA of node: 135.2456 deg Eccentricity: 0.0014859 Arg of perigee: 095.9594 deg Mean anomaly: 264.3158 deg Mean motion: 13.17027271 rev/day Decay rate: 5.1e-07 rev/day^2 Epoch rev: 93798 Checksum: 311
Satellite: MET-2/21 Catalog number: 22782 Epoch time: 11047.56610835 Element set: 0021 Inclination: 082.5450 deg RA of node: 058.5784 deg Eccentricity: 0.0024029 Arg of perigee: 077.9429 deg Mean anomaly: 282.4420 deg Mean motion: 13.83652329 rev/day Decay rate: 4.8e-07 rev/day^2 Epoch rev: 88187 Checksum: 311
Satellite: OKEAN-4 Catalog number: 23317 Epoch time: 11047.72713108 Element set: 0476 Inclination: 082.5421 deg RA of node: 125.6139 deg Eccentricity: 0.0022919 Arg of perigee: 152.0075 deg Mean anomaly: 208.2406 deg Mean motion: 14.82941217 rev/day Decay rate: 5.17e-06 rev/day^2 Epoch rev: 88269 Checksum: 288
Satellite: NOAA-14 Catalog number: 23455 Epoch time: 11047.72644075 Element set: 0383 Inclination: 098.8566 deg RA of node: 131.5392 deg Eccentricity: 0.0008625 Arg of perigee: 260.9115 deg Mean anomaly: 099.1069 deg Mean motion: 14.13805660 rev/day Decay rate: -1.4e-07 rev/day^2 Epoch rev: 83205 Checksum: 300
Satellite: NOAA-15 Catalog number: 25338 Epoch time: 11047.87818910 Element set: 0711 Inclination: 098.6440 deg RA of node: 035.7341 deg Eccentricity: 0.0011553 Arg of perigee: 082.6402 deg Mean anomaly: 277.6052 deg Mean motion: 14.24882817 rev/day Decay rate: -1.01e-06 rev/day^2 Epoch rev: 66359 Checksum: 298
Satellite: RESURS Catalog number: 25394 Epoch time: 11048.67625942 Element set: 726 Inclination: 098.2982 deg RA of node: 058.2845 deg Eccentricity: 0.0000790 Arg of perigee: 183.6317 deg Mean anomaly: 176.4851 deg Mean motion: 14.24222975 rev/day Decay rate: -1.79e-06 rev/day^2 Epoch rev: 65529 Checksum: 332
Satellite: FENGYUN1 Catalog number: 25730 Epoch time: 11047.84099155 Element set: 259 Inclination: 098.8061 deg RA of node: 011.7389 deg Eccentricity: 0.0022233 Arg of perigee: 291.9453 deg Mean anomaly: 067.9371 deg Mean motion: 14.08496035 rev/day Decay rate: 2.56e-06 rev/day^2 Epoch rev: 60612 Checksum: 304
Satellite: OKEAN-0 Catalog number: 25860 Epoch time: 11047.51221489 Element set: 0233 Inclination: 097.8679 deg RA of node: 017.3908 deg Eccentricity: 0.0001730 Arg of perigee: 054.7332 deg Mean anomaly: 305.4028 deg Mean motion: 14.73710615 rev/day Decay rate: 1.62e-06 rev/day^2 Epoch rev: 62288 Checksum: 285
Satellite: NOAA-16 Catalog number: 26536 Epoch time: 11047.87835017 Element set: 0192 Inclination: 099.1536 deg RA of node: 075.9085 deg Eccentricity: 0.0010765 Arg of perigee: 014.9083 deg Mean anomaly: 345.2396 deg Mean motion: 14.12596570 rev/day Decay rate: -1.54e-06 rev/day^2 Epoch rev: 53637 Checksum: 321
Satellite: NOAA-17 Catalog number: 27453 Epoch time: 11047.90478192 Element set: 0189 Inclination: 098.3974 deg RA of node: 093.0495 deg Eccentricity: 0.0012409 Arg of perigee: 138.5725 deg Mean anomaly: 221.6379 deg Mean motion: 14.24236111 rev/day Decay rate: -1.8e-07 rev/day^2 Epoch rev: 44953 Checksum: 318
Satellite: NOAA-18 Catalog number: 28654 Epoch time: 11047.87422261 Element set: 0674 Inclination: 098.9818 deg RA of node: 358.8164 deg Eccentricity: 0.0015241 Arg of perigee: 083.5506 deg Mean anomaly: 276.7408 deg Mean motion: 14.11435552 rev/day Decay rate: -1.34e-06 rev/day^2 Epoch rev: 29595 Checksum: 328
Satellite: NOAA-19 Catalog number: 33591 Epoch time: 11047.91573978 Element set: 0867 Inclination: 098.8149 deg RA of node: 350.1612 deg Eccentricity: 0.0013729 Arg of perigee: 320.1367 deg Mean anomaly: 039.8811 deg Mean motion: 14.11129118 rev/day Decay rate: -6.3e-07 rev/day^2 Epoch rev: 10442 Checksum: 306
/EX SB KEPS @ AMSAT $ORB11048.M Orbital Elements 11048.MISC
HR AMSAT ORBITAL ELEMENTS FOR MANNED AND MISCELLANEOUS SATELLITES FROM WA5QGD FORT WORTH,TX February 17, 2011 Send Subscribe/unsubscribe to KEPS at http://www.amsat.org/mailman/listinfo/keps BID: ORB11048.M TO ALL RADIO AMATEURS BT
Satellite: HUBBLE Catalog number: 20580 Epoch time: 11047.25959679 Element set: 714 Inclination: 028.4706 deg RA of node: 086.2685 deg Eccentricity: 0.0003142 Arg of perigee: 268.8718 deg Mean anomaly: 091.1605 deg Mean motion: 15.01163754 rev/day Decay rate: 7.39e-06 rev/day^2 Epoch rev: 94146 Checksum: 311
Satellite: ISS Catalog number: 25544 Epoch time: 11048.87834359 Element set: 845 Inclination: 051.6444 deg RA of node: 052.7476 deg Eccentricity: 0.0004651 Arg of perigee: 326.8986 deg Mean anomaly: 096.5145 deg Mean motion: 15.72476713 rev/day Decay rate: 2.3351e-04 rev/day^2 Epoch rev: 70212 Checksum: 317
Satellite: CO-58 Catalog number: 28895 Epoch time: 11047.65615684 Element set: 0804 Inclination: 097.9870 deg RA of node: 288.5849 deg Eccentricity: 0.0016880 Arg of perigee: 236.8685 deg Mean anomaly: 123.0926 deg Mean motion: 14.60008153 rev/day Decay rate: 2.52e-06 rev/day^2 Epoch rev: 28265 Checksum: 349
Satellite: FALCON Catalog number: 30776 Epoch time: 11048.85132557 Element set: 24 Inclination: 035.4338 deg RA of node: 352.3209 deg Eccentricity: 0.0000355 Arg of perigee: 210.7696 deg Mean anomaly: 149.3017 deg Mean motion: 15.04123586 rev/day Decay rate: 1.472e-05 rev/day^2 Epoch rev: 21706 Checksum: 271
Satellite: MAST Catalog number: 31126 Epoch time: 11047.58295247 Element set: 0087 Inclination: 097.9085 deg RA of node: 081.5554 deg Eccentricity: 0.0094265 Arg of perigee: 185.5863 deg Mean anomaly: 174.4285 deg Mean motion: 14.53673993 rev/day Decay rate: 1.58e-06 rev/day^2 Epoch rev: 20356 Checksum: 331
Satellite: CAPE1 Catalog number: 31130 Epoch time: 11047.73124128 Element set: 0107 Inclination: 097.9144 deg RA of node: 078.6530 deg Eccentricity: 0.0102027 Arg of perigee: 194.7618 deg Mean anomaly: 165.0591 deg Mean motion: 14.52290982 rev/day Decay rate: 2.56e-06 rev/day^2 Epoch rev: 20315 Checksum: 271
Satellite: COMPASS Catalog number: 32787 Epoch time: 11048.72868898 Element set: 912 Inclination: 097.8620 deg RA of node: 114.7154 deg Eccentricity: 0.0015091 Arg of perigee: 202.6807 deg Mean anomaly: 157.3740 deg Mean motion: 14.82143203 rev/day Decay rate: 4.91e-06 rev/day^2 Epoch rev: 15186 Checksum: 304
Satellite: AAUSAT2 Catalog number: 32788 Epoch time: 11048.63905960 Element set: 901 Inclination: 097.8624 deg RA of node: 114.8156 deg Eccentricity: 0.0015050 Arg of perigee: 203.4186 deg Mean anomaly: 156.6295 deg Mean motion: 14.82308357 rev/day Decay rate: 6.96e-06 rev/day^2 Epoch rev: 15186 Checksum: 315
Satellite: DO-64 Catalog number: 32789 Epoch time: 11047.73495593 Element set: 0918 Inclination: 097.8714 deg RA of node: 114.7225 deg Eccentricity: 0.0014938 Arg of perigee: 204.7584 deg Mean anomaly: 155.2909 deg Mean motion: 14.82598605 rev/day Decay rate: 1.072e-05 rev/day^2 Epoch rev: 15173 Checksum: 343
Satellite: CO-66 Catalog number: 32791 Epoch time: 11048.72229905 Element set: 902 Inclination: 097.8641 deg RA of node: 114.6830 deg Eccentricity: 0.0015499 Arg of perigee: 201.4495 deg Mean anomaly: 158.6071 deg Mean motion: 14.81883220 rev/day Decay rate: 2.12e-06 rev/day^2 Epoch rev: 15181 Checksum: 302
Satellite: RS-30 Catalog number: 32953 Epoch time: 11048.62131809 Element set: 479 Inclination: 082.4964 deg RA of node: 237.0515 deg Eccentricity: 0.0018244 Arg of perigee: 288.8403 deg Mean anomaly: 071.0697 deg Mean motion: 12.43010395 rev/day Decay rate: 1.0e-07 rev/day^2 Epoch rev: 12423 Checksum: 279
Satellite: TACSAT-3 Catalog number: 35001 Epoch time: 11048.82534842 Element set: 506 Inclination: 040.4502 deg RA of node: 175.4103 deg Eccentricity: 0.0022862 Arg of perigee: 039.0339 deg Mean anomaly: 321.2122 deg Mean motion: 15.44889847 rev/day Decay rate: 1.2268e-04 rev/day^2 Epoch rev: 9859 Checksum: 285
Satellite: PHARMSAT Catalog number: 35002 Epoch time: 11047.75043680 Element set: 471 Inclination: 040.4683 deg RA of node: 179.3813 deg Eccentricity: 0.0024161 Arg of perigee: 036.2681 deg Mean anomaly: 323.9772 deg Mean motion: 15.45061835 rev/day Decay rate: 1.0275e-04 rev/day^2 Epoch rev: 9845 Checksum: 284
Satellite: HAWKSAT1 Catalog number: 35003 Epoch time: 11047.68416744 Element set: 0516 Inclination: 040.4510 deg RA of node: 163.7828 deg Eccentricity: 0.0023435 Arg of perigee: 060.0958 deg Mean anomaly: 300.2190 deg Mean motion: 15.52179166 rev/day Decay rate: 3.1748e-04 rev/day^2 Epoch rev: 09862 Checksum: 284
Satellite: CP6 Catalog number: 35004 Epoch time: 11048.66802771 Element set: 518 Inclination: 040.4532 deg RA of node: 153.5236 deg Eccentricity: 0.0022482 Arg of perigee: 075.0744 deg Mean anomaly: 285.2554 deg Mean motion: 15.54622349 rev/day Decay rate: 3.7647e-04 rev/day^2 Epoch rev: 9881 Checksum: 303
Satellite: AEROCUB3 Catalog number: 35005 Epoch time: 11006.09222617 Element set: 610 Inclination: 040.4461 deg RA of node: 021.7975 deg Eccentricity: 0.0025578 Arg of perigee: 084.1677 deg Mean anomaly: 280.7191 deg Mean motion: 16.39196088 rev/day Decay rate: 1.4049365e-01 rev/day^2 Epoch rev: 9254 Checksum: 305
